• In Uzbekistan
  • List of Countries
  • For 7 days
  • Water Temperature
  • Satellite Maps
  • Weather Map
  • Weather Widgets
  • user-avatar
    Login

    Hourly Weather Siempang

    Today, 23 November, Thursday

    Time Temperature Precipitation Wind Pressure Humidity
    00:00 +25°C° 0.1 mm 1 mps 751 mmHg 86%
    01:00 +23°C° 0 mm 0 mps 751 mmHg 89%
    02:00 +23°C° 0.4 mm 0 mps 751 mmHg 91%
    03:00 +22°C° 0.4 mm 0 mps 751 mmHg 92%
    04:00 +22°C° 0.4 mm 0 mps 751 mmHg 93%
    05:00 +22°C° 0.4 mm 0 mps 752 mmHg 92%
    06:00 +25°C° 0.4 mm 1 mps 752 mmHg 91%
    07:00 +25°C° 0.4 mm 1 mps 752 mmHg 91%
    08:00 +26°C° 0.1 mm 1 mps 752 mmHg 84%
    09:00 +28°C° 0.1 mm 1 mps 752 mmHg 78%
    10:00 +29°C° 0.1 mm 2 mps 753 mmHg 72%
    11:00 +30°C° 0 mm 2 mps 752 mmHg 68%
    12:00 +31°C° 0 mm 2 mps 752 mmHg 64%
    13:00 +33°C° 0 mm 3 mps 751 mmHg 60%
    14:00 +33°C° 0.1 mm 3 mps 751 mmHg 61%
    15:00 +31°C° 0.1 mm 3 mps 751 mmHg 62%
    16:00 +31°C° 0.1 mm 2 mps 750 mmHg 63%
    17:00 +29°C° 0 mm 2 mps 751 mmHg 68%
    18:00 +28°C° 0 mm 2 mps 751 mmHg 72%
    19:00 +26°C° 0 mm 1 mps 752 mmHg 77%
    20:00 +26°C° 0 mm 1 mps 752 mmHg 79%
    21:00 +25°C° 0 mm 1 mps 752 mmHg 81%
    22:00 +25°C° 0 mm 1 mps 753 mmHg 84%
    23:00 +24°C° 0 mm 1 mps 753 mmHg 84%

    Tomorrow, 24 November, Friday

    Time Temperature Precipitation Wind Pressure Humidity
    00:00 +24°C° 0 mm 1 mps 753 mmHg 85%
    01:00 +24°C° 0 mm 1 mps 753 mmHg 86%
    02:00 +24°C° 0 mm 1 mps 752 mmHg 86%
    03:00 +23°C° 0 mm 1 mps 752 mmHg 86%
    04:00 +23°C° 0 mm 1 mps 752 mmHg 85%
    05:00 +24°C° 0 mm 1 mps 752 mmHg 84%
    06:00 +24°C° 0 mm 1 mps 753 mmHg 82%
    07:00 +24°C° 0 mm 1 mps 753 mmHg 81%
    08:00 +27°C° 0 mm 1 mps 753 mmHg 71%
    09:00 +29°C° 0 mm 2 mps 753 mmHg 62%
    10:00 +32°C° 0 mm 2 mps 753 mmHg 52%
    11:00 +34°C° 0 mm 2 mps 753 mmHg 49%
    12:00 +35°C° 0 mm 2 mps 752 mmHg 46%
    13:00 +36°C° 0 mm 2 mps 752 mmHg 43%
    14:00 +35°C° 0 mm 2 mps 751 mmHg 49%
    15:00 +34°C° 0 mm 2 mps 751 mmHg 55%
    16:00 +31°C° 0 mm 1 mps 751 mmHg 61%
    17:00 +30°C° 0 mm 1 mps 751 mmHg 63%
    18:00 +29°C° 0 mm 1 mps 752 mmHg 66%
    19:00 +28°C° 0 mm 1 mps 753 mmHg 69%
    20:00 +27°C° 0 mm 1 mps 753 mmHg 70%
    21:00 +26°C° 0 mm 1 mps 753 mmHg 72%
    22:00 +26°C° 0 mm 1 mps 754 mmHg 73%
    23:00 +25°C° 0 mm 1 mps 753 mmHg 74%

    Day after tomorrow, 25 November, Saturday

    Time Temperature Precipitation Wind Pressure Humidity
    00:00 +25°C° 0 mm 1 mps 753 mmHg 76%
    01:00 +24°C° 0 mm 1 mps 753 mmHg 77%
    02:00 +24°C° 0 mm 1 mps 753 mmHg 78%
    03:00 +24°C° 0 mm 1 mps 752 mmHg 79%
    04:00 +23°C° 0 mm 1 mps 752 mmHg 80%
    05:00 +24°C° 0 mm 1 mps 753 mmHg 80%
    06:00 +24°C° 0 mm 1 mps 753 mmHg 79%
    07:00 +25°C° 0 mm 1 mps 753 mmHg 78%
    08:00 +27°C° 0 mm 1 mps 754 mmHg 70%
    09:00 +30°C° 0 mm 1 mps 754 mmHg 61%
    10:00 +32°C° 0 mm 2 mps 754 mmHg 52%
    11:00 +34°C° 0 mm 2 mps 753 mmHg 51%
    12:00 +35°C° 0 mm 2 mps 753 mmHg 49%
    13:00 +36°C° 0 mm 2 mps 752 mmHg 48%
    14:00 +35°C° 0.1 mm 2 mps 751 mmHg 52%
    15:00 +34°C° 0.1 mm 2 mps 751 mmHg 56%
    16:00 +32°C° 0.1 mm 2 mps 751 mmHg 60%
    17:00 +31°C° 0.2 mm 1 mps 751 mmHg 64%
    18:00 +29°C° 0.2 mm 1 mps 752 mmHg 69%
    19:00 +28°C° 0.2 mm 1 mps 752 mmHg 73%
    20:00 +27°C° 0 mm 1 mps 753 mmHg 76%
    21:00 +26°C° 0 mm 1 mps 753 mmHg 79%
    22:00 +25°C° 0 mm 1 mps 754 mmHg 82%
    23:00 +25°C° 0 mm 1 mps 753 mmHg 83%

    26 November, Sunday

    Time Temperature Precipitation Wind Pressure Humidity
    00:00 +23°C° 0 mm 0 mps 753 mmHg 84%
    01:00 +22°C° 0 mm 0 mps 753 mmHg 86%
    02:00 +22°C° 0 mm 0 mps 753 mmHg 86%
    03:00 +22°C° 0 mm 0 mps 753 mmHg 86%
    04:00 +22°C° 0 mm 0 mps 752 mmHg 87%
    05:00 +22°C° 0 mm 0 mps 753 mmHg 85%
    06:00 +23°C° 0 mm 0 mps 753 mmHg 83%
    07:00 +23°C° 0 mm 0 mps 754 mmHg 82%
    08:00 +28°C° 0 mm 1 mps 754 mmHg 73%
    09:00 +30°C° 0 mm 1 mps 754 mmHg 63%
    10:00 +33°C° 0 mm 1 mps 754 mmHg 54%
    11:00 +34°C° 0 mm 1 mps 753 mmHg 52%
    12:00 +35°C° 0 mm 1 mps 752 mmHg 50%
    13:00 +35°C° 0 mm 1 mps 751 mmHg 47%
    14:00 +35°C° 0.1 mm 1 mps 751 mmHg 51%
    15:00 +34°C° 0.1 mm 1 mps 750 mmHg 55%
    16:00 +34°C° 0.1 mm 1 mps 750 mmHg 58%
    17:00 +32°C° 0.2 mm 1 mps 750 mmHg 64%
    18:00 +30°C° 0.2 mm 1 mps 751 mmHg 70%
    19:00 +28°C° 0.2 mm 1 mps 752 mmHg 76%
    20:00 +28°C° 0.2 mm 1 mps 752 mmHg 79%
    21:00 +27°C° 0.2 mm 1 mps 753 mmHg 82%
    22:00 +26°C° 0.2 mm 1 mps 753 mmHg 86%
    23:00 +26°C° 0.1 mm 1 mps 753 mmHg 87%

    27 November, Monday

    Time Temperature Precipitation Wind Pressure Humidity
    00:00 +25°C° 0.1 mm 1 mps 752 mmHg 89%
    01:00 +25°C° 0.1 mm 1 mps 752 mmHg 90%
    02:00 +25°C° 0 mm 1 mps 752 mmHg 91%
    03:00 +24°C° 0 mm 1 mps 751 mmHg 92%
    04:00 +24°C° 0 mm 1 mps 751 mmHg 92%
    05:00 +22°C° 0 mm 0 mps 751 mmHg 91%
    06:00 +23°C° 0 mm 0 mps 752 mmHg 90%
    07:00 +23°C° 0 mm 0 mps 752 mmHg 88%
    08:00 +28°C° 0 mm 1 mps 752 mmHg 77%
    09:00 +30°C° 0 mm 1 mps 752 mmHg 67%
    10:00 +33°C° 0 mm 1 mps 753 mmHg 56%
    11:00 +33°C° 0 mm 1 mps 752 mmHg 54%
    12:00 +34°C° 0 mm 1 mps 751 mmHg 52%
    13:00 +34°C° 0 mm 1 mps 750 mmHg 51%
    14:00 +34°C° 0.1 mm 1 mps 750 mmHg 54%
    15:00 +33°C° 0.1 mm 1 mps 749 mmHg 57%
    16:00 +33°C° 0.1 mm 1 mps 749 mmHg 61%
    17:00 +31°C° 0.1 mm 1 mps 749 mmHg 65%
    18:00 +30°C° 0.1 mm 1 mps 750 mmHg 69%
    19:00 +28°C° 0.1 mm 1 mps 751 mmHg 73%
    20:00 +27°C° 0 mm 1 mps 751 mmHg 76%
    21:00 +26°C° 0 mm 1 mps 751 mmHg 78%
    22:00 +26°C° 0 mm 1 mps 751 mmHg 81%
    23:00 +25°C° 0 mm 1 mps 751 mmHg 83%

    28 November, Tuesday

    Time Temperature Precipitation Wind Pressure Humidity
    00:00 +25°C° 0 mm 1 mps 751 mmHg 85%
    01:00 +22°C° 0 mm 0 mps 751 mmHg 87%
    02:00 +22°C° 0 mm 0 mps 751 mmHg 87%
    03:00 +22°C° 0 mm 0 mps 751 mmHg 88%
    04:00 +22°C° 0 mm 0 mps 751 mmHg 88%
    05:00 +22°C° 0 mm 0 mps 751 mmHg 87%
    06:00 +22°C° 0 mm 0 mps 751 mmHg 85%
    07:00 +23°C° 0 mm 0 mps 752 mmHg 84%
    08:00 +27°C° 0 mm 1 mps 752 mmHg 75%
    09:00 +29°C° 0 mm 1 mps 752 mmHg 66%
    10:00 +32°C° 0 mm 1 mps 752 mmHg 57%
    11:00 +33°C° 0 mm 1 mps 751 mmHg 54%
    12:00 +34°C° 0 mm 1 mps 750 mmHg 50%
    13:00 +35°C° 0 mm 1 mps 749 mmHg 47%
    14:00 +35°C° 0 mm 1 mps 749 mmHg 50%
    15:00 +34°C° 0 mm 1 mps 749 mmHg 53%
    16:00 +34°C° 0 mm 1 mps 749 mmHg 57%
    17:00 +32°C° 0 mm 1 mps 750 mmHg 61%
    18:00 +31°C° 0 mm 1 mps 750 mmHg 66%
    19:00 +29°C° 0 mm 1 mps 751 mmHg 71%
    20:00 +28°C° 0 mm 1 mps 751 mmHg 73%
    21:00 +27°C° 0 mm 1 mps 751 mmHg 76%
    22:00 +27°C° 0 mm 1 mps 751 mmHg 79%
    23:00 +26°C° 0 mm 1 mps 751 mmHg 82%
    Show more